Location: Sungai Bunut
(2.6333°N, 113.7333°E)
Time: 22:19:02
(UTC+00:00)

Explorer 11/Cluster Stage 4 - Pass Details

Date: 12 December 2023
Orbit: 465 x 1224 km, 28.8° (Epoch: 22 February)

Event Time Altitude Azimuth Distance (km) Brightness Sun altitude
Rises 10:36:37 0° 297° (WNW) 3,491 10.5 -5.2°
Reaches altitude 10° 10:39:28 10° 295° (WNW) 2,417 9.7 -5.8°
Maximum altitude 10:45:07 71° 211° (SSW) 732 6.6 -7.1°
Drops below altitude 10° 10:49:36 10° 127° (SE) 1,940 8.3 -8.2°
Enters shadow 10:53:02 -5° 124° (SE) 3,276 9.5 -8.9°
